{"data":{"norad_id":66426,"epoch":"2026-05-25T04:59:58.765056Z","epoch_age_seconds":50339,"freshness":"FRESH","line1":"1 66426U 25259E   26145.20831904  .00012614  00000+0  46691-3 0  9994","line2":"2 66426  42.9998 202.2368 0002677 288.4506  71.6054 15.27593675 31192","mean_motion":15.27593675,"eccentricity":0.0002677,"inclination_deg":42.9998,"raan_deg":202.2368,"arg_perigee_deg":288.4506,"mean_anomaly_deg":71.6054,"bstar":0.00046691,"rev_number":3119,"period_min":94.265904838864,"perigee_km":481.17141991932,"apogee_km":484.84487703182,"semimajor_km":6861.1451484756,"source":"CELESTRAK","updated_at":"2026-05-25T13:38:21.207480Z"}}